{"data":{"norad_id":64795,"intl_designator":"2025-150F","name":"STARLINK-34567","alt_names":[],"object_type":"PAYLOAD","status":"ACTIVE","operator":null,"country":"US","launch_date":"2025-07-16","launch_site_code":"AFWTR","launch_vehicle":null,"mission":null,"orbit_class":"UNKNOWN","rcs_meters":null,"size_class":null,"mass_kg":null,"dimensions":null,"purposes":["comms"],"wikipedia_slug":null,"has_3d_model":false,"image_url":null,"decayed_at":null,"tle_current":{"epoch":"2026-05-24T19:32:34.322496Z","epoch_age_seconds":87533,"freshness":"FRESH","line1":"1 64795U 25150F   26144.81428614  .00001973  00000+0  17304-3 0  9992","line2":"2 64795  70.0008 302.3537 0002751 265.0068  95.0778 14.98335614 47925","mean_motion":14.98335614,"eccentricity":0.0002751,"inclination_deg":70.0008,"raan_deg":302.3537,"arg_perigee_deg":265.0068,"mean_anomaly_deg":95.0778,"bstar":0.00017304,"rev_number":4792,"period_min":96.106639029672,"perigee_km":570.12653687838,"apogee_km":573.95052345507,"semimajor_km":6950.1755301667,"source":"CELESTRAK","updated_at":"2026-05-25T13:38:20.563683Z"}}}